Weather in Chingirlau

Kazakhstan     51°06′06″N   54°05′06″E
temp.,
°C
wind,
m/s
gust,
m/s
humid.,
%
clouds,
%
prec.,
mm/h
press.,
hPa
HPBL,
m
19 may, wed
wed1923:00+25e233273 0.0 101327
02:00+20ne33405 0.0 101319
05:00+19ene224734 0.0 101212
08:00+21ne4860100 0.0 1013233
11:00+27e664414 0.0 1013936
14:00+28e55390 0.0 10131538
17:00+29ene65351 0.0 10132713
20:00+21ese612615 0.8 1013603
20 may, thu
thu2023:00+18ene3107698 4.8 1015264
02:00+17e513785 0.1 1015330
05:00+16e614780 0.4 1015382
08:00+18ese7126615 0.0 1015523
11:00+23se8952100 0.0 10151084
14:00+27se6741100 0.0 10141654
17:00+27s6943100 0.0 10141124
20:00+20sse4868100 0.6 1014169
21 may, fri
fri2123:00+16s3581100 3.1 1015135
02:00+16s41087100 3.2 1016398
05:00+16ese51085100 3.4 1017331
08:00+18ese36721 0.0 1018328
11:00+21sw126096 0.0 10181059
14:00+25nw45452 0.0 10181963
17:00+25nw55354 0.0 10182028
20:00+23nnw2250100 0.0 101928
22 may, sat
sat2223:00+18wnw225874 0.0 102013
02:00+17nnw33638 0.0 102021
05:00+16n336580 0.0 102121
08:00+20ne235610 0.0 1022167
11:00+25ene34395 0.0 10221023
14:00+27ene33325 0.0 10211389
17:00+29e34325 0.0 10201538
20:00+25e35475 0.0 102091
23 may, sun
sun2323:00+21e4555100 0.0 102058
02:00+19e4562100 0.0 101968
05:00+17e456387 0.0 101972
08:00+21ene465812 0.0 1020212
11:00+27e564094 0.0 1019618
14:00+31ese563038 0.0 10181318
17:00+33s562160 0.0 10182106
20:00+30se333479 0.0 101824